Time,TemperatureF,DewpointF,PressureIn,WindDirection,WindDirectionDegrees,WindSpeedMPH,WindSpeedGustMPH,Humidity,HourlyPrecipIn,Conditions,Clouds,dailyrainin,SoftwareType,DateUTC
2013-01-22 00:04:00,31.8,30.0,30.14,ESE,112,0.0,0.0,93,0.00,,OVC002,0.00,VWS V14.01,2013-01-22 08:04:00,
2013-01-22 00:09:00,31.8,30.0,30.14,ESE,112,0.0,0.0,93,0.00,,OVC002,0.00,VWS V14.01,2013-01-22 08:09:00,
2013-01-22 00:14:00,31.8,30.0,30.14,ESE,112,0.0,0.0,93,0.00,,OVC002,0.00,VWS V14.01,2013-01-22 08:14:00,
2013-01-22 00:19:00,31.8,30.0,30.14,ESE,112,0.0,0.0,93,0.00,,OVC002,0.00,VWS V14.01,2013-01-22 08:19:00,
2013-01-22 00:24:00,31.8,30.0,30.14,ESE,112,0.0,0.0,93,0.00,,OVC002,0.00,VWS V14.01,2013-01-22 08:24:00,
2013-01-22 00:29:00,31.8,30.0,30.14,ESE,112,0.0,0.0,93,0.00,,OVC002,0.00,VWS V14.01,2013-01-22 08:29:00,
2013-01-22 00:34:00,31.6,29.8,30.14,ESE,112,0.0,0.0,93,0.00,,OVC002,0.00,VWS V14.01,2013-01-22 08:34:00,
2013-01-22 00:39:00,31.8,30.0,30.14,ESE,112,0.0,0.0,93,0.00,,OVC002,0.00,VWS V14.01,2013-01-22 08:39:00,
2013-01-22 00:44:00,31.6,29.8,30.14,ESE,112,0.0,0.0,93,0.00,,OVC002,0.00,VWS V14.01,2013-01-22 08:44:00,
2013-01-22 00:49:00,31.6,29.8,30.14,ESE,112,0.0,0.0,93,0.00,,OVC002,0.00,VWS V14.01,2013-01-22 08:49:00,
2013-01-22 00:54:00,31.6,29.8,30.14,ESE,112,0.0,0.0,93,0.00,,OVC002,0.00,VWS V14.01,2013-01-22 08:54:00,
2013-01-22 01:00:00,31.6,29.8,30.14,ESE,112,0.0,0.0,93,0.00,,OVC002,0.00,VWS V14.01,2013-01-22 09:00:00,
2013-01-22 01:05:00,31.6,29.8,30.14,ESE,112,0.0,0.0,93,0.00,,OVC002,0.00,VWS V14.01,2013-01-22 09:05:00,
2013-01-22 01:10:00,31.6,29.8,30.14,ESE,112,0.0,0.0,93,0.00,,OVC002,0.00,VWS V14.01,2013-01-22 09:10:00,
2013-01-22 01:15:00,31.6,29.8,30.14,ESE,112,0.0,0.0,93,0.00,,OVC002,0.00,VWS V14.01,2013-01-22 09:15:00,
2013-01-22 01:20:00,31.6,29.8,30.14,ESE,112,0.0,0.0,93,0.00,,OVC002,0.00,VWS V14.01,2013-01-22 09:20:00,
2013-01-22 01:25:00,31.6,29.8,30.14,ESE,112,0.0,0.0,93,0.00,,OVC002,0.00,VWS V14.01,2013-01-22 09:25:00,
2013-01-22 01:30:00,31.6,29.8,30.14,ESE,112,0.0,0.0,93,0.00,,OVC002,0.00,VWS V14.01,2013-01-22 09:30:00,
2013-01-22 01:35:00,31.4,29.6,30.14,ESE,112,0.0,0.0,93,0.00,,OVC002,0.00,VWS V14.01,2013-01-22 09:35:00,
2013-01-22 01:40:00,31.2,29.4,30.14,ESE,112,0.0,0.0,93,0.00,,OVC002,0.00,VWS V14.01,2013-01-22 09:40:00,
2013-01-22 01:45:00,31.2,29.4,30.13,ESE,112,0.0,0.0,93,0.00,,OVC002,0.00,VWS V14.01,2013-01-22 09:45:00,
2013-01-22 01:50:00,31.2,29.4,30.13,ESE,112,0.0,0.0,93,0.00,,OVC002,0.00,VWS V14.01,2013-01-22 09:50:00,
2013-01-22 01:55:00,31.2,29.4,30.13,ESE,112,0.0,0.0,93,0.00,,OVC002,0.00,VWS V14.01,2013-01-22 09:55:00,
2013-01-22 02:01:00,31.2,29.4,30.14,ESE,112,0.0,0.0,93,0.00,,OVC002,0.00,VWS V14.01,2013-01-22 10:01:00,
2013-01-22 02:06:00,31.2,29.4,30.14,ESE,112,0.0,0.0,93,0.00,,OVC002,0.00,VWS V14.01,2013-01-22 10:06:00,
2013-01-22 02:11:00,31.2,29.4,30.13,ESE,112,0.0,0.0,93,0.00,,OVC002,0.00,VWS V14.01,2013-01-22 10:11:00,
2013-01-22 02:16:00,31.2,29.4,30.14,ESE,112,0.0,0.0,93,0.00,,OVC002,0.00,VWS V14.01,2013-01-22 10:16:00,
2013-01-22 02:21:00,31.2,29.4,30.14,ESE,112,0.0,0.0,93,0.00,,OVC002,0.00,VWS V14.01,2013-01-22 10:21:00,
2013-01-22 02:26:00,31.1,29.3,30.14,ESE,112,0.0,0.0,93,0.00,,OVC002,0.00,VWS V14.01,2013-01-22 10:26:00,
2013-01-22 02:31:00,31.1,29.3,30.13,ESE,112,0.0,0.0,93,0.00,,OVC002,0.00,VWS V14.01,2013-01-22 10:31:00,
2013-01-22 02:37:00,30.9,29.1,30.14,ESE,112,0.0,0.0,93,0.00,,OVC002,0.00,VWS V14.01,2013-01-22 10:37:00,
2013-01-22 02:42:00,30.9,29.1,30.13,ESE,112,0.0,0.0,93,0.00,,OVC002,0.00,VWS V14.01,2013-01-22 10:42:00,
2013-01-22 02:47:00,30.9,29.1,30.13,ESE,112,0.0,0.0,93,0.00,,OVC002,0.00,VWS V14.01,2013-01-22 10:47:00,
2013-01-22 02:52:00,31.1,29.3,30.13,ESE,112,0.0,0.0,93,0.00,,OVC002,0.00,VWS V14.01,2013-01-22 10:52:00,
2013-01-22 02:57:00,31.1,29.3,30.13,ESE,112,0.0,0.0,93,0.00,,OVC002,0.00,VWS V14.01,2013-01-22 10:57:00,
2013-01-22 03:02:00,30.9,29.1,30.14,ESE,112,0.0,0.0,93,0.00,,OVC002,0.00,VWS V14.01,2013-01-22 11:02:00,
2013-01-22 03:07:00,30.9,29.1,30.14,ESE,112,0.0,0.0,93,0.00,,OVC002,0.00,VWS V14.01,2013-01-22 11:07:00,
2013-01-22 03:12:00,30.9,29.1,30.14,ESE,112,0.0,0.0,93,0.00,,OVC002,0.00,VWS V14.01,2013-01-22 11:12:00,
2013-01-22 03:17:00,30.9,29.1,30.13,ESE,112,0.0,0.0,93,0.00,,OVC002,0.00,VWS V14.01,2013-01-22 11:17:00,
2013-01-22 03:22:00,30.9,29.1,30.13,ESE,112,0.0,0.0,93,0.00,,OVC002,0.00,VWS V14.01,2013-01-22 11:22:00,
2013-01-22 03:28:00,30.9,29.1,30.13,ESE,112,0.0,0.0,93,0.00,,OVC002,0.00,VWS V14.01,2013-01-22 11:28:00,
2013-01-22 03:33:00,30.9,29.1,30.14,ESE,112,0.0,0.0,93,0.00,,OVC002,0.00,VWS V14.01,2013-01-22 11:33:00,
2013-01-22 03:38:00,30.9,29.1,30.14,ESE,112,0.0,0.0,93,0.00,,OVC002,0.00,VWS V14.01,2013-01-22 11:38:00,
2013-01-22 03:43:00,30.7,28.9,30.13,ESE,112,0.0,0.0,93,0.00,,OVC002,0.00,VWS V14.01,2013-01-22 11:43:00,
2013-01-22 03:48:00,30.9,29.1,30.13,ESE,112,0.0,0.0,93,0.00,,OVC002,0.00,VWS V14.01,2013-01-22 11:48:00,
2013-01-22 03:53:00,30.9,29.1,30.13,ESE,112,0.0,0.0,93,0.00,,OVC002,0.00,VWS V14.01,2013-01-22 11:53:00,
2013-01-22 03:58:00,30.7,28.9,30.12,ESE,112,0.0,0.0,93,0.00,,OVC002,0.00,VWS V14.01,2013-01-22 11:58:00,
2013-01-22 04:04:00,30.7,28.9,30.12,ESE,112,0.0,0.0,93,0.00,,OVC002,0.00,VWS V14.01,2013-01-22 12:04:00,
2013-01-22 04:09:00,30.7,28.9,30.12,ESE,112,0.0,0.0,93,0.00,,OVC002,0.00,VWS V14.01,2013-01-22 12:09:00,
2013-01-22 04:14:00,30.7,28.9,30.12,ESE,112,0.0,0.0,93,0.00,,OVC002,0.00,VWS V14.01,2013-01-22 12:14:00,
2013-01-22 04:19:00,30.7,28.9,30.12,SE,135,0.0,0.0,93,0.00,,OVC002,0.00,VWS V14.01,2013-01-22 12:19:00,
2013-01-22 04:24:00,30.7,28.9,30.12,SE,135,0.0,0.0,93,0.00,,OVC002,0.00,VWS V14.01,2013-01-22 12:24:00,
2013-01-22 04:29:00,30.7,28.9,30.12,SE,135,0.0,0.0,93,0.00,,OVC002,0.00,VWS V14.01,2013-01-22 12:29:00,
2013-01-22 04:35:00,30.7,28.9,30.12,SE,135,0.0,0.0,93,0.00,,OVC002,0.00,VWS V14.01,2013-01-22 12:35:00,
2013-01-22 04:40:00,30.7,28.9,30.12,SE,135,0.0,0.0,93,0.00,,OVC002,0.00,VWS V14.01,2013-01-22 12:40:00,
2013-01-22 04:45:00,30.7,28.9,30.12,SE,135,0.0,0.0,93,0.00,,OVC002,0.00,VWS V14.01,2013-01-22 12:45:00,
2013-01-22 04:51:00,30.7,28.9,30.12,SE,135,0.0,0.0,93,0.00,,OVC002,0.00,VWS V14.01,2013-01-22 12:51:00,
2013-01-22 04:56:00,30.5,28.7,30.12,SE,135,0.0,0.0,93,0.00,,OVC002,0.00,VWS V14.01,2013-01-22 12:56:00,
2013-01-22 05:01:00,30.5,28.7,30.12,SE,135,0.0,0.0,93,0.00,,OVC002,0.00,VWS V14.01,2013-01-22 13:01:00,
2013-01-22 05:06:00,30.3,28.5,30.12,SE,135,0.0,0.0,93,0.00,,OVC002,0.00,VWS V14.01,2013-01-22 13:06:00,
2013-01-22 05:12:00,30.3,28.5,30.11,SE,135,0.0,0.0,93,0.00,,OVC002,0.00,VWS V14.01,2013-01-22 13:12:00,
2013-01-22 05:17:00,30.3,28.5,30.11,SE,135,0.0,0.0,93,0.00,,OVC002,0.00,VWS V14.01,2013-01-22 13:17:00,
2013-01-22 05:22:00,30.3,28.5,30.11,SE,135,0.0,0.0,93,0.00,,OVC002,0.00,VWS V14.01,2013-01-22 13:22:00,
2013-01-22 05:27:00,30.3,28.5,30.11,SE,135,0.0,0.0,93,0.00,,OVC002,0.00,VWS V14.01,2013-01-22 13:27:00,
2013-01-22 05:33:00,30.2,28.4,30.11,SE,135,0.0,0.0,93,0.00,,OVC002,0.00,VWS V14.01,2013-01-22 13:33:00,
2013-01-22 05:38:00,30.2,28.4,30.11,SE,135,0.0,0.0,93,0.00,,OVC002,0.00,VWS V14.01,2013-01-22 13:38:00,
2013-01-22 05:43:00,30.2,28.4,30.10,SE,135,0.0,0.0,93,0.00,,OVC002,0.00,VWS V14.01,2013-01-22 13:43:00,
2013-01-22 05:48:00,30.0,28.2,30.11,SE,135,0.0,0.0,93,0.00,,OVC002,0.00,VWS V14.01,2013-01-22 13:48:00,
2013-01-22 05:54:00,30.0,28.2,30.10,SE,135,0.0,0.0,93,0.00,,OVC002,0.00,VWS V14.01,2013-01-22 13:54:00,
2013-01-22 05:59:00,30.0,28.2,30.10,SE,135,0.0,0.0,93,0.00,,OVC002,0.00,VWS V14.01,2013-01-22 13:59:00,
2013-01-22 06:04:00,30.0,28.2,30.10,SE,135,0.0,0.0,93,0.00,,OVC002,0.00,VWS V14.01,2013-01-22 14:04:00,
2013-01-22 06:09:00,30.0,28.2,30.10,SE,135,0.0,0.0,93,0.00,,OVC002,0.00,VWS V14.01,2013-01-22 14:09:00,
2013-01-22 06:14:00,30.0,28.2,30.10,SE,135,0.0,0.0,93,0.00,,OVC002,0.00,VWS V14.01,2013-01-22 14:14:00,
2013-01-22 06:19:00,29.8,28.0,30.09,SE,135,0.0,0.0,93,0.00,,OVC002,0.00,VWS V14.01,2013-01-22 14:19:00,
2013-01-22 06:25:00,29.8,28.0,30.09,SE,135,0.0,0.0,93,0.00,,OVC002,0.00,VWS V14.01,2013-01-22 14:25:00,
2013-01-22 06:30:00,29.8,28.0,30.09,SE,135,0.0,0.0,93,0.00,,OVC002,0.00,VWS V14.01,2013-01-22 14:30:00,
2013-01-22 06:35:00,29.6,27.8,30.09,SE,135,0.0,0.0,93,0.00,,OVC002,0.00,VWS V14.01,2013-01-22 14:35:00,
2013-01-22 06:40:00,29.4,27.6,30.10,SE,135,0.0,0.0,93,0.00,,OVC002,0.00,VWS V14.01,2013-01-22 14:40:00,
2013-01-22 06:45:00,29.4,27.6,30.09,SE,135,0.0,0.0,93,0.00,,OVC002,0.00,VWS V14.01,2013-01-22 14:45:00,
2013-01-22 06:50:00,29.4,27.6,30.09,SE,135,0.0,0.0,93,0.00,,OVC002,0.00,VWS V14.01,2013-01-22 14:50:00,
2013-01-22 06:55:00,29.3,27.5,30.09,SE,135,0.0,0.0,93,0.00,,OVC002,0.00,VWS V14.01,2013-01-22 14:55:00,
2013-01-22 07:00:00,29.3,27.5,30.09,SE,135,0.0,0.0,93,0.00,,OVC002,0.00,VWS V14.01,2013-01-22 15:00:00,
2013-01-22 07:05:00,29.1,27.3,30.09,SE,135,0.0,0.0,93,0.00,,OVC002,0.00,VWS V14.01,2013-01-22 15:05:00,
2013-01-22 07:10:00,29.1,27.3,30.08,SE,135,0.0,0.0,93,0.00,,OVC002,0.00,VWS V14.01,2013-01-22 15:10:00,
2013-01-22 07:15:00,29.1,27.3,30.08,SE,135,0.0,0.0,93,0.00,,OVC002,0.00,VWS V14.01,2013-01-22 15:15:00,
2013-01-22 07:20:00,29.1,27.3,30.08,SE,135,0.0,0.0,93,0.00,,OVC002,0.00,VWS V14.01,2013-01-22 15:20:00,
2013-01-22 07:25:00,28.9,27.1,30.08,SE,135,0.0,0.0,93,0.00,,OVC002,0.00,VWS V14.01,2013-01-22 15:25:00,
2013-01-22 07:30:00,28.9,27.1,30.08,SE,135,0.0,0.0,93,0.00,,OVC002,0.00,VWS V14.01,2013-01-22 15:30:00,
2013-01-22 07:35:00,28.7,26.9,30.08,SE,135,0.0,0.0,93,0.00,,OVC002,0.00,VWS V14.01,2013-01-22 15:35:00,
2013-01-22 07:40:00,28.7,26.9,30.08,SE,135,0.0,0.0,93,0.00,,OVC002,0.00,VWS V14.01,2013-01-22 15:40:00,
2013-01-22 07:45:00,28.7,26.9,30.08,SE,135,0.0,0.0,93,0.00,,OVC002,0.00,VWS V14.01,2013-01-22 15:45:00,
2013-01-22 07:50:00,28.7,26.9,30.08,SE,135,0.0,0.0,93,0.00,,OVC002,0.00,VWS V14.01,2013-01-22 15:50:00,
2013-01-22 07:55:00,28.5,26.7,30.08,SE,135,0.0,0.0,93,0.00,,OVC002,0.00,VWS V14.01,2013-01-22 15:55:00,
2013-01-22 08:00:00,28.5,26.7,30.08,SE,135,0.0,0.0,93,0.00,,OVC002,0.00,VWS V14.01,2013-01-22 16:00:00,
2013-01-22 08:05:00,28.5,26.7,30.08,SE,135,0.0,0.0,93,0.00,,OVC002,0.00,VWS V14.01,2013-01-22 16:05:00,
2013-01-22 08:10:00,28.7,26.9,30.08,SE,135,0.0,0.0,93,0.00,,OVC002,0.00,VWS V14.01,2013-01-22 16:10:00,
2013-01-22 08:15:00,28.5,26.7,30.08,SE,135,0.0,0.0,93,0.00,,OVC002,0.00,VWS V14.01,2013-01-22 16:15:00,
2013-01-22 08:20:00,28.5,26.7,30.08,SE,135,0.0,0.0,93,0.00,,OVC002,0.00,VWS V14.01,2013-01-22 16:20:00,
2013-01-22 08:25:00,28.7,26.9,30.08,SE,135,0.0,0.0,93,0.00,,OVC002,0.00,VWS V14.01,2013-01-22 16:25:00,
2013-01-22 08:30:00,28.7,26.9,30.08,SE,135,0.0,0.0,93,0.00,,OVC002,0.00,VWS V14.01,2013-01-22 16:30:00,
2013-01-22 08:35:00,28.7,26.9,30.08,SE,135,0.0,0.0,93,0.00,,OVC002,0.00,VWS V14.01,2013-01-22 16:35:00,
2013-01-22 08:40:00,28.9,27.1,30.08,SE,135,0.0,0.0,93,0.00,,OVC002,0.00,VWS V14.01,2013-01-22 16:40:00,
2013-01-22 08:45:00,28.9,27.1,30.08,SE,135,0.0,0.0,93,0.00,,OVC002,0.00,VWS V14.01,2013-01-22 16:45:00,
2013-01-22 08:50:00,29.1,27.3,30.08,SE,135,0.0,0.0,93,0.00,,OVC002,0.00,VWS V14.01,2013-01-22 16:50:00,
2013-01-22 08:55:00,29.1,27.3,30.08,SE,135,0.0,0.0,93,0.00,,OVC002,0.00,VWS V14.01,2013-01-22 16:55:00,
2013-01-22 09:00:00,29.3,27.5,30.08,SE,135,0.0,0.0,93,0.00,,OVC002,0.00,VWS V14.01,2013-01-22 17:00:00,
2013-01-22 09:05:00,29.3,27.5,30.08,SE,135,0.0,0.0,93,0.00,,OVC002,0.00,VWS V14.01,2013-01-22 17:05:00,
2013-01-22 09:10:00,29.6,27.8,30.08,SE,135,0.0,0.0,93,0.00,,OVC002,0.00,VWS V14.01,2013-01-22 17:10:00,
2013-01-22 09:15:00,29.8,28.0,30.08,SE,135,0.0,0.0,93,0.00,,OVC002,0.00,VWS V14.01,2013-01-22 17:15:00,
2013-01-22 09:20:00,30.0,28.2,30.08,SE,135,0.0,0.0,93,0.00,,OVC002,0.00,VWS V14.01,2013-01-22 17:20:00,
2013-01-22 09:25:00,30.0,28.2,30.08,SE,135,0.0,0.0,93,0.00,,OVC002,0.00,VWS V14.01,2013-01-22 17:25:00,
2013-01-22 09:30:00,30.0,28.2,30.08,SE,135,0.0,0.0,93,0.00,,OVC002,0.00,VWS V14.01,2013-01-22 17:30:00,
2013-01-22 09:35:00,30.0,28.2,30.08,SE,135,0.0,0.0,93,0.00,,OVC002,0.00,VWS V14.01,2013-01-22 17:35:00,
2013-01-22 09:40:00,30.2,28.4,30.08,SE,135,0.0,0.0,93,0.00,,OVC002,0.00,VWS V14.01,2013-01-22 17:40:00,
2013-01-22 09:45:00,30.3,28.5,30.08,SE,135,0.0,0.0,93,0.00,,OVC002,0.00,VWS V14.01,2013-01-22 17:45:00,
2013-01-22 09:50:00,30.5,28.7,30.08,SE,135,0.0,0.0,93,0.00,,OVC002,0.00,VWS V14.01,2013-01-22 17:50:00,
2013-01-22 09:55:00,30.7,28.9,30.09,SE,135,0.0,0.0,93,0.00,,OVC002,0.00,VWS V14.01,2013-01-22 17:55:00,
2013-01-22 10:00:00,30.7,28.9,30.08,SE,135,0.0,0.0,93,0.00,,OVC002,0.00,VWS V14.01,2013-01-22 18:00:00,
2013-01-22 10:05:00,30.9,29.1,30.08,SE,135,0.0,0.0,93,0.00,,OVC002,0.00,VWS V14.01,2013-01-22 18:05:00,
2013-01-22 10:10:00,31.2,29.4,30.08,SE,135,0.0,0.0,93,0.00,,OVC002,0.00,VWS V14.01,2013-01-22 18:10:00,
2013-01-22 10:15:00,31.2,29.4,30.08,SE,135,0.0,0.0,93,0.00,,OVC002,0.00,VWS V14.01,2013-01-22 18:15:00,
2013-01-22 10:20:00,31.4,29.6,30.08,SE,135,0.0,0.0,93,0.00,,OVC002,0.00,VWS V14.01,2013-01-22 18:20:00,
2013-01-22 10:25:00,31.6,29.8,30.08,SE,135,0.0,0.0,93,0.00,,OVC002,0.00,VWS V14.01,2013-01-22 18:25:00,
2013-01-22 10:30:00,31.6,29.8,30.08,SE,135,0.0,0.0,93,0.00,,OVC002,0.00,VWS V14.01,2013-01-22 18:30:00,
2013-01-22 10:35:00,31.8,30.0,30.08,SE,135,0.0,0.0,93,0.00,,OVC002,0.00,VWS V14.01,2013-01-22 18:35:00,
2013-01-22 10:40:00,32.1,30.3,30.08,SE,135,0.0,0.0,93,0.00,,OVC002,0.00,VWS V14.01,2013-01-22 18:40:00,
2013-01-22 10:45:00,32.1,30.3,30.08,SE,135,0.0,0.0,93,0.00,,OVC002,0.00,VWS V14.01,2013-01-22 18:45:00,
2013-01-22 10:50:00,32.1,30.3,30.08,SE,135,0.0,0.0,93,0.00,,OVC002,0.00,VWS V14.01,2013-01-22 18:50:00,
2013-01-22 10:55:00,32.3,30.5,30.08,SE,135,0.0,0.0,93,0.00,,OVC002,0.00,VWS V14.01,2013-01-22 18:55:00,
2013-01-22 11:00:00,32.5,30.4,30.08,SE,135,0.0,0.0,92,0.00,,OVC002,0.00,VWS V14.01,2013-01-22 19:00:00,
2013-01-22 11:05:00,32.7,30.9,30.08,SE,135,0.0,0.0,93,0.00,,OVC002,0.00,VWS V14.01,2013-01-22 19:05:00,
2013-01-22 11:10:00,32.7,30.9,30.08,SE,135,0.0,0.0,93,0.00,,OVC002,0.00,VWS V14.01,2013-01-22 19:10:00,
2013-01-22 11:15:00,32.9,31.1,30.08,SE,135,0.0,0.0,93,0.00,,OVC002,0.00,VWS V14.01,2013-01-22 19:15:00,
2013-01-22 11:20:00,33.0,31.2,30.08,SE,135,0.0,0.0,93,0.00,,OVC002,0.00,VWS V14.01,2013-01-22 19:20:00,
2013-01-22 11:25:00,33.6,31.8,30.08,SE,135,0.0,0.0,93,0.00,,OVC002,0.00,VWS V14.01,2013-01-22 19:25:00,
2013-01-22 11:30:00,33.6,31.8,30.08,SE,135,0.0,0.0,93,0.00,,OVC002,0.00,VWS V14.01,2013-01-22 19:30:00,
2013-01-22 11:35:00,33.9,32.1,30.07,SE,135,0.0,0.0,93,0.00,,OVC002,0.00,VWS V14.01,2013-01-22 19:35:00,
2013-01-22 11:40:00,34.3,32.5,30.07,SE,135,0.0,0.0,93,0.00,,OVC002,0.00,VWS V14.01,2013-01-22 19:40:00,
2013-01-22 11:46:00,34.3,32.5,30.07,SE,135,0.0,0.0,93,0.00,,OVC002,0.00,VWS V14.01,2013-01-22 19:46:00,
2013-01-22 11:51:00,34.3,32.5,30.07,SE,135,0.0,0.0,93,0.00,,OVC002,0.00,VWS V14.01,2013-01-22 19:51:00,
2013-01-22 11:56:00,34.3,32.5,30.06,SE,135,0.0,0.0,93,0.00,,OVC002,0.00,VWS V14.01,2013-01-22 19:56:00,
2013-01-22 12:02:00,34.3,32.5,30.06,SE,135,0.0,0.0,93,0.00,,OVC003,0.00,VWS V14.01,2013-01-22 20:02:00,
2013-01-22 12:07:00,34.5,32.7,30.06,SE,135,0.0,0.0,93,0.00,,OVC003,0.00,VWS V14.01,2013-01-22 20:07:00,
2013-01-22 12:12:00,34.8,33.0,30.06,SE,135,0.0,0.0,93,0.00,,OVC003,0.00,VWS V14.01,2013-01-22 20:12:00,
2013-01-22 12:17:00,35.4,33.6,30.06,SE,135,0.0,0.0,93,0.00,,OVC003,0.00,VWS V14.01,2013-01-22 20:17:00,
2013-01-22 12:22:00,35.7,33.9,30.05,SE,135,0.0,0.0,93,0.00,,OVC003,0.00,VWS V14.01,2013-01-22 20:22:00,
2013-01-22 12:27:00,36.3,34.5,30.05,SE,135,0.0,0.0,93,0.00,,OVC003,0.00,VWS V14.01,2013-01-22 20:27:00,
2013-01-22 12:33:00,36.3,34.5,30.05,SE,135,0.0,0.0,93,0.00,,OVC003,0.00,VWS V14.01,2013-01-22 20:33:00,
2013-01-22 12:38:00,36.3,34.2,30.05,SE,135,0.0,0.0,92,0.00,,OVC003,0.00,VWS V14.01,2013-01-22 20:38:00,
2013-01-22 12:43:00,36.3,34.2,30.05,SE,135,0.0,0.0,92,0.00,,OVC003,0.00,VWS V14.01,2013-01-22 20:43:00,
2013-01-22 12:48:00,36.3,34.2,30.05,SE,135,0.0,0.0,92,0.00,,OVC003,0.00,VWS V14.01,2013-01-22 20:48:00,
2013-01-22 12:53:00,35.9,33.8,30.05,SE,135,0.0,0.0,92,0.00,,OVC003,0.00,VWS V14.01,2013-01-22 20:53:00,
2013-01-22 12:59:00,35.7,33.6,30.05,SE,135,0.0,0.0,92,0.00,,OVC003,0.00,VWS V14.01,2013-01-22 20:59:00,
2013-01-22 13:04:00,35.7,33.6,30.04,SE,135,0.0,0.0,92,0.00,,OVC003,0.00,VWS V14.01,2013-01-22 21:04:00,
2013-01-22 13:09:00,35.7,33.6,30.04,SE,135,0.0,0.0,92,0.00,,OVC003,0.00,VWS V14.01,2013-01-22 21:09:00,
2013-01-22 13:14:00,35.9,33.8,30.03,SE,135,0.0,0.0,92,0.00,,OVC003,0.00,VWS V14.01,2013-01-22 21:14:00,
2013-01-22 13:20:00,36.1,34.0,30.03,ESE,112,0.0,0.0,92,0.00,,OVC003,0.00,VWS V14.01,2013-01-22 21:20:00,
2013-01-22 13:25:00,36.1,34.0,30.04,ESE,112,0.0,0.0,92,0.00,,OVC003,0.00,VWS V14.01,2013-01-22 21:25:00,
2013-01-22 13:30:00,36.3,34.2,30.03,ESE,112,0.0,0.0,92,0.00,,OVC003,0.00,VWS V14.01,2013-01-22 21:30:00,
2013-01-22 13:32:00,36.3,34.2,30.03,ESE,112,0.0,0.0,92,0.00,,OVC003,0.00,VWS V14.01,2013-01-22 21:32:00,
2013-01-22 13:37:00,36.3,34.2,30.04,ESE,112,0.0,0.0,92,0.00,,OVC003,0.00,VWS V14.01,2013-01-22 21:37:00,
2013-01-22 13:42:00,36.3,34.2,30.03,ESE,112,0.0,0.0,92,0.00,,OVC003,0.00,VWS V14.01,2013-01-22 21:42:00,
2013-01-22 13:47:00,36.3,34.2,30.03,ESE,112,0.0,0.0,92,0.00,,OVC003,0.00,VWS V14.01,2013-01-22 21:47:00,
2013-01-22 13:53:00,36.1,34.0,30.03,ESE,112,0.0,0.0,92,0.00,,OVC003,0.00,VWS V14.01,2013-01-22 21:53:00,
2013-01-22 13:58:00,36.1,34.0,30.03,ESE,112,0.0,0.0,92,0.00,,OVC003,0.00,VWS V14.01,2013-01-22 21:58:00,
2013-01-22 14:03:00,35.9,33.8,30.02,ESE,112,0.0,0.0,92,0.00,,FEW004,0.00,VWS V14.01,2013-01-22 22:03:00,
2013-01-22 14:08:00,35.9,33.8,30.02,ESE,112,0.0,0.0,92,0.00,,FEW004,0.00,VWS V14.01,2013-01-22 22:08:00,
2013-01-22 14:14:00,35.9,33.8,30.01,ESE,112,0.0,0.0,92,0.00,,FEW004,0.00,VWS V14.01,2013-01-22 22:14:00,
2013-01-22 14:19:00,35.9,33.8,30.01,ESE,112,0.0,0.0,92,0.00,,FEW004,0.00,VWS V14.01,2013-01-22 22:19:00,
2013-01-22 14:24:00,35.9,33.8,30.01,ESE,112,0.0,0.0,92,0.00,,FEW004,0.00,VWS V14.01,2013-01-22 22:24:00,
2013-01-22 14:29:00,35.7,33.6,30.01,ESE,112,0.0,0.0,92,0.00,,FEW004,0.00,VWS V14.01,2013-01-22 22:29:00,
2013-01-22 14:34:00,35.9,33.8,30.01,ESE,112,0.0,0.0,92,0.00,,FEW004,0.00,VWS V14.01,2013-01-22 22:34:00,
2013-01-22 14:39:00,35.9,33.8,30.01,ESE,112,0.0,0.0,92,0.00,,FEW004,0.00,VWS V14.01,2013-01-22 22:39:00,
2013-01-22 14:44:00,35.9,33.8,30.01,ESE,112,0.0,0.0,92,0.00,,FEW004,0.00,VWS V14.01,2013-01-22 22:44:00,
2013-01-22 14:50:00,35.9,33.8,30.01,ESE,112,0.0,0.0,92,0.00,,FEW004,0.00,VWS V14.01,2013-01-22 22:50:00,
2013-01-22 14:55:00,35.9,33.8,30.01,ESE,112,0.0,0.0,92,0.00,,FEW004,0.00,VWS V14.01,2013-01-22 22:55:00,
2013-01-22 15:00:00,35.9,33.8,30.01,ESE,112,0.0,0.0,92,0.00,,FEW004,0.00,VWS V14.01,2013-01-22 23:00:00,
2013-01-22 15:05:00,35.9,33.8,30.01,ESE,112,0.0,0.0,92,0.00,,FEW004,0.00,VWS V14.01,2013-01-22 23:05:00,
2013-01-22 15:10:00,36.1,34.0,30.01,ESE,112,0.0,0.0,92,0.00,,FEW004,0.00,VWS V14.01,2013-01-22 23:10:00,
2013-01-22 15:15:00,36.1,34.0,30.01,ESE,112,0.0,0.0,92,0.00,,FEW004,0.00,VWS V14.01,2013-01-22 23:15:00,
2013-01-22 15:20:00,36.3,34.2,30.01,ESE,112,0.0,0.0,92,0.00,,FEW004,0.00,VWS V14.01,2013-01-22 23:20:00,
2013-01-22 15:25:00,36.3,34.2,30.00,ESE,112,0.0,0.0,92,0.00,,FEW004,0.00,VWS V14.01,2013-01-22 23:25:00,
2013-01-22 15:30:00,36.3,34.2,29.99,ESE,112,0.0,0.0,92,0.00,,FEW004,0.00,VWS V14.01,2013-01-22 23:30:00,
2013-01-22 15:35:00,36.3,34.2,29.99,ESE,112,0.0,0.0,92,0.00,,FEW004,0.00,VWS V14.01,2013-01-22 23:35:00,
2013-01-22 15:40:00,36.3,34.2,29.99,ESE,112,0.0,0.0,92,0.00,,FEW004,0.00,VWS V14.01,2013-01-22 23:40:00,
2013-01-22 15:45:00,36.1,34.0,29.99,ESE,112,0.0,0.0,92,0.00,,FEW004,0.00,VWS V14.01,2013-01-22 23:45:00,
2013-01-22 15:50:00,36.1,34.0,29.99,ESE,112,0.0,0.0,92,0.00,,FEW004,0.00,VWS V14.01,2013-01-22 23:50:00,
2013-01-22 15:55:00,36.1,34.0,29.98,ESE,112,0.0,0.0,92,0.00,,FEW004,0.00,VWS V14.01,2013-01-22 23:55:00,
2013-01-22 16:00:00,36.1,34.0,29.99,ESE,112,0.0,0.0,92,0.00,,FEW004,0.00,VWS V14.01,2013-01-23 00:00:00,
2013-01-22 16:05:00,36.1,34.0,29.99,ESE,112,0.0,0.0,92,0.00,,CLR,0.00,VWS V14.01,2013-01-23 00:05:00,
2013-01-22 16:10:00,36.1,34.0,29.99,East,90,0.0,0.0,92,0.00,,CLR,0.00,VWS V14.01,2013-01-23 00:10:00,
2013-01-22 16:15:00,36.1,34.0,29.99,East,90,0.0,0.0,92,0.00,,CLR,0.00,VWS V14.01,2013-01-23 00:15:00,
2013-01-22 16:20:00,36.1,34.0,29.98,East,90,0.0,0.0,92,0.00,,CLR,0.00,VWS V14.01,2013-01-23 00:20:00,
2013-01-22 16:25:00,35.9,33.8,29.98,East,90,0.0,0.0,92,0.00,,CLR,0.00,VWS V14.01,2013-01-23 00:25:00,
2013-01-22 16:30:00,35.7,33.6,29.98,ESE,112,0.0,0.0,92,0.00,,CLR,0.00,VWS V14.01,2013-01-23 00:30:00,
2013-01-22 16:35:00,35.7,33.6,29.98,ESE,112,0.0,0.0,92,0.00,,CLR,0.00,VWS V14.01,2013-01-23 00:35:00,
2013-01-22 16:40:00,35.4,33.3,29.98,ESE,112,0.0,0.0,92,0.00,,CLR,0.00,VWS V14.01,2013-01-23 00:40:00,
2013-01-22 16:45:00,35.4,33.3,29.98,ESE,112,0.0,0.0,92,0.00,,CLR,0.00,VWS V14.01,2013-01-23 00:45:00,
2013-01-22 16:50:00,35.4,33.3,29.97,SSE,158,0.0,0.0,92,0.00,,CLR,0.00,VWS V14.01,2013-01-23 00:50:00,
2013-01-22 16:55:00,35.2,33.1,29.97,SSE,158,0.0,0.0,92,0.00,,CLR,0.00,VWS V14.01,2013-01-23 00:55:00,
2013-01-22 17:00:00,35.2,33.1,29.97,SSE,158,0.0,0.0,92,0.00,,CLR,0.00,VWS V14.01,2013-01-23 01:00:00,
2013-01-22 17:05:00,34.8,32.7,29.96,SSE,158,0.0,0.0,92,0.00,,CLR,0.00,VWS V14.01,2013-01-23 01:05:00,
2013-01-22 17:10:00,34.8,32.7,29.97,SSE,158,0.0,0.0,92,0.00,,CLR,0.00,VWS V14.01,2013-01-23 01:10:00,
2013-01-22 17:15:00,34.8,32.7,29.96,SSE,158,0.0,0.0,92,0.00,,CLR,0.00,VWS V14.01,2013-01-23 01:15:00,
2013-01-22 17:20:00,34.7,32.6,29.97,SSE,158,0.0,0.0,92,0.00,,CLR,0.00,VWS V14.01,2013-01-23 01:20:00,
2013-01-22 17:25:00,34.5,32.4,29.97,SSE,158,0.0,0.0,92,0.00,,CLR,0.00,VWS V14.01,2013-01-23 01:25:00,
2013-01-22 17:30:00,34.3,32.2,29.97,SSE,158,0.0,0.0,92,0.00,,CLR,0.00,VWS V14.01,2013-01-23 01:30:00,
2013-01-22 17:35:00,34.3,32.2,29.96,SSE,158,0.0,0.0,92,0.00,,CLR,0.00,VWS V14.01,2013-01-23 01:35:00,
2013-01-22 17:40:00,34.3,32.2,29.96,SSE,158,0.0,0.0,92,0.00,,CLR,0.00,VWS V14.01,2013-01-23 01:40:00,
2013-01-22 17:45:00,34.3,32.2,29.96,SSE,158,0.0,0.0,92,0.00,,CLR,0.00,VWS V14.01,2013-01-23 01:45:00,
2013-01-22 17:50:00,34.3,32.2,29.96,SSE,158,0.0,0.0,92,0.00,,CLR,0.00,VWS V14.01,2013-01-23 01:50:00,
2013-01-22 17:55:00,34.3,32.2,29.97,SSE,158,0.0,0.0,92,0.00,,CLR,0.00,VWS V14.01,2013-01-23 01:55:00,
2013-01-22 18:00:00,34.3,32.2,29.97,SSE,158,0.0,0.0,92,0.00,,CLR,0.00,VWS V14.01,2013-01-23 02:00:00,
2013-01-22 18:05:00,34.3,32.2,29.97,SSE,158,0.0,0.0,92,0.00,,CLR,0.00,VWS V14.01,2013-01-23 02:05:00,
2013-01-22 18:10:00,34.1,32.0,29.96,SSE,158,0.0,0.0,92,0.00,,CLR,0.00,VWS V14.01,2013-01-23 02:10:00,
2013-01-22 18:15:00,34.1,32.0,29.96,SSE,158,0.0,0.0,92,0.00,,CLR,0.00,VWS V14.01,2013-01-23 02:15:00,
2013-01-22 18:20:00,33.9,31.8,29.96,SSE,158,0.0,0.0,92,0.00,,CLR,0.00,VWS V14.01,2013-01-23 02:20:00,
2013-01-22 18:25:00,33.9,31.8,29.96,SSE,158,0.0,0.0,92,0.00,,CLR,0.00,VWS V14.01,2013-01-23 02:25:00,
2013-01-22 18:30:00,33.8,31.7,29.95,SE,135,0.0,0.0,92,0.00,,CLR,0.00,VWS V14.01,2013-01-23 02:30:00,
2013-01-22 18:35:00,33.8,31.7,29.95,SE,135,0.0,0.0,92,0.00,,CLR,0.00,VWS V14.01,2013-01-23 02:35:00,
2013-01-22 18:40:00,33.8,31.7,29.95,SE,135,0.0,0.0,92,0.00,,CLR,0.00,VWS V14.01,2013-01-23 02:40:00,
2013-01-22 18:45:00,33.8,31.7,29.95,SE,135,0.0,0.0,92,0.00,,CLR,0.00,VWS V14.01,2013-01-23 02:45:00,
2013-01-22 18:50:00,33.6,31.5,29.95,SE,135,0.0,0.0,92,0.00,,CLR,0.00,VWS V14.01,2013-01-23 02:50:00,
2013-01-22 18:55:00,33.6,31.5,29.95,SE,135,0.0,0.0,92,0.00,,CLR,0.00,VWS V14.01,2013-01-23 02:55:00,
2013-01-22 19:00:00,33.6,31.5,29.95,SE,135,0.0,0.0,92,0.00,,CLR,0.00,VWS V14.01,2013-01-23 03:00:00,
2013-01-22 19:05:00,33.6,31.5,29.95,SE,135,0.0,0.0,92,0.00,,CLR,0.00,VWS V14.01,2013-01-23 03:05:00,
2013-01-22 19:10:00,33.8,31.7,29.95,SE,135,0.0,0.0,92,0.00,,CLR,0.00,VWS V14.01,2013-01-23 03:10:00,
2013-01-22 19:15:00,33.6,31.5,29.94,SE,135,0.0,0.0,92,0.00,,CLR,0.00,VWS V14.01,2013-01-23 03:15:00,
2013-01-22 19:20:00,33.6,31.5,29.94,SE,135,0.0,0.0,92,0.00,,CLR,0.00,VWS V14.01,2013-01-23 03:20:00,
2013-01-22 19:25:00,33.6,31.5,29.94,SE,135,0.0,0.0,92,0.00,,CLR,0.00,VWS V14.01,2013-01-23 03:25:00,
2013-01-22 19:30:00,33.6,31.5,29.94,SE,135,0.0,0.0,92,0.00,,CLR,0.00,VWS V14.01,2013-01-23 03:30:00,
2013-01-22 19:35:00,33.6,31.5,29.95,SE,135,0.0,0.0,92,0.00,,CLR,0.00,VWS V14.01,2013-01-23 03:35:00,
2013-01-22 19:40:00,33.6,31.5,29.94,SE,135,0.0,0.0,92,0.00,,CLR,0.00,VWS V14.01,2013-01-23 03:40:00,
2013-01-22 19:45:00,33.4,31.3,29.94,SE,135,0.0,0.0,92,0.00,,CLR,0.00,VWS V14.01,2013-01-23 03:45:00,
2013-01-22 19:50:00,33.4,31.3,29.94,SE,135,0.0,0.0,92,0.00,,CLR,0.00,VWS V14.01,2013-01-23 03:50:00,
2013-01-22 19:55:00,33.2,31.1,29.94,SE,135,0.0,0.0,92,0.00,,CLR,0.00,VWS V14.01,2013-01-23 03:55:00,
2013-01-22 20:00:00,33.2,31.1,29.94,SE,135,0.0,0.0,92,0.00,,CLR,0.00,VWS V14.01,2013-01-23 04:00:00,
2013-01-22 20:05:00,33.0,30.9,29.94,SE,135,0.0,0.0,92,0.00,,CLR,0.00,VWS V14.01,2013-01-23 04:05:00,
2013-01-22 20:10:00,33.0,30.9,29.94,SE,135,0.0,0.0,92,0.00,,CLR,0.00,VWS V14.01,2013-01-23 04:10:00,
2013-01-22 20:15:00,32.9,30.8,29.94,SE,135,0.0,0.0,92,0.00,,CLR,0.00,VWS V14.01,2013-01-23 04:15:00,
2013-01-22 20:20:00,32.9,30.8,29.94,SE,135,0.0,0.0,92,0.00,,CLR,0.00,VWS V14.01,2013-01-23 04:20:00,
2013-01-22 20:25:00,32.9,30.8,29.94,SE,135,0.0,0.0,92,0.00,,CLR,0.00,VWS V14.01,2013-01-23 04:25:00,
2013-01-22 20:30:00,32.9,30.8,29.94,SE,135,0.0,0.0,92,0.00,,CLR,0.00,VWS V14.01,2013-01-23 04:30:00,
2013-01-22 20:35:00,32.9,30.8,29.94,SE,135,0.0,0.0,92,0.00,,CLR,0.00,VWS V14.01,2013-01-23 04:35:00,
2013-01-22 20:40:00,32.9,31.1,29.94,SE,135,0.0,0.0,93,0.00,,CLR,0.00,VWS V14.01,2013-01-23 04:40:00,
2013-01-22 20:45:00,32.9,31.1,29.94,SE,135,0.0,0.0,93,0.00,,CLR,0.00,VWS V14.01,2013-01-23 04:45:00,
2013-01-22 20:50:00,32.9,31.1,29.94,SE,135,0.0,0.0,93,0.00,,CLR,0.00,VWS V14.01,2013-01-23 04:50:00,
2013-01-22 20:55:00,32.9,31.1,29.94,SE,135,0.0,0.0,93,0.00,,CLR,0.00,VWS V14.01,2013-01-23 04:55:00,
2013-01-22 21:01:00,32.9,31.1,29.94,SE,135,0.0,0.0,93,0.00,,CLR,0.00,VWS V14.01,2013-01-23 05:01:00,
2013-01-22 21:02:00,33.0,31.2,29.94,SE,135,0.0,0.0,93,0.00,,CLR,0.00,VWS V14.01,2013-01-23 05:02:00,
2013-01-22 21:03:00,33.0,31.2,29.94,SE,135,0.0,0.0,93,0.00,,CLR,0.00,VWS V14.01,2013-01-23 05:03:00,
2013-01-22 21:06:00,33.0,31.2,29.94,SE,135,0.0,0.0,93,0.00,,CLR,0.00,VWS V14.01,2013-01-23 05:06:00,
2013-01-22 21:11:00,33.2,31.4,29.94,SE,135,0.0,0.0,93,0.00,,CLR,0.00,VWS V14.01,2013-01-23 05:11:00,
2013-01-22 21:16:00,33.2,31.4,29.93,SE,135,0.0,0.0,93,0.00,,CLR,0.00,VWS V14.01,2013-01-23 05:16:00,
2013-01-22 21:21:00,33.4,31.6,29.93,SE,135,0.0,0.0,93,0.00,,CLR,0.00,VWS V14.01,2013-01-23 05:21:00,
2013-01-22 21:27:00,33.4,31.6,29.93,SE,135,0.0,0.0,93,0.00,,CLR,0.00,VWS V14.01,2013-01-23 05:27:00,
2013-01-22 21:32:00,33.6,31.8,29.93,SE,135,0.0,0.0,93,0.00,,CLR,0.00,VWS V14.01,2013-01-23 05:32:00,
2013-01-22 21:37:00,33.6,31.8,29.93,SE,135,0.0,0.0,93,0.00,,CLR,0.00,VWS V14.01,2013-01-23 05:37:00,
2013-01-22 21:42:00,33.6,31.8,29.93,SE,135,0.0,0.0,93,0.00,,CLR,0.00,VWS V14.01,2013-01-23 05:42:00,
2013-01-22 21:47:00,33.6,31.8,29.93,SE,135,0.0,0.0,93,0.00,,CLR,0.00,VWS V14.01,2013-01-23 05:47:00,
2013-01-22 21:53:00,33.6,31.8,29.93,SE,135,0.0,0.0,93,0.00,,CLR,0.00,VWS V14.01,2013-01-23 05:53:00,
2013-01-22 21:58:00,33.6,31.8,29.93,SE,135,0.0,0.0,93,0.00,,CLR,0.00,VWS V14.01,2013-01-23 05:58:00,
2013-01-22 22:03:00,33.6,31.8,29.93,SE,135,0.0,0.0,93,0.00,,OVC120,0.00,VWS V14.01,2013-01-23 06:03:00,
2013-01-22 22:08:00,33.6,31.8,29.92,SE,135,0.0,0.0,93,0.00,,OVC120,0.00,VWS V14.01,2013-01-23 06:08:00,
2013-01-22 22:13:00,33.6,31.8,29.93,SE,135,0.0,0.0,93,0.00,,OVC120,0.00,VWS V14.01,2013-01-23 06:13:00,
2013-01-22 22:19:00,33.6,31.8,29.93,SE,135,0.0,0.0,93,0.00,,OVC120,0.00,VWS V14.01,2013-01-23 06:19:00,
2013-01-22 22:24:00,33.6,31.8,29.93,SE,135,0.0,0.0,93,0.00,,OVC120,0.00,VWS V14.01,2013-01-23 06:24:00,
2013-01-22 22:29:00,33.6,31.8,29.93,SE,135,0.0,0.0,93,0.00,,OVC120,0.00,VWS V14.01,2013-01-23 06:29:00,
2013-01-22 22:34:00,33.8,32.0,29.93,SE,135,0.0,0.0,93,0.00,,OVC120,0.00,VWS V14.01,2013-01-23 06:34:00,
2013-01-22 22:39:00,33.8,32.0,29.93,SE,135,0.0,0.0,93,0.00,,OVC120,0.00,VWS V14.01,2013-01-23 06:39:00,
2013-01-22 22:44:00,33.8,32.0,29.93,SE,135,0.0,0.0,93,0.00,,OVC120,0.00,VWS V14.01,2013-01-23 06:44:00,
2013-01-22 22:50:00,33.8,32.0,29.93,SE,135,0.0,0.0,93,0.00,,OVC120,0.00,VWS V14.01,2013-01-23 06:50:00,
2013-01-22 22:55:00,33.8,32.0,29.93,SE,135,0.0,0.0,93,0.00,,OVC120,0.00,VWS V14.01,2013-01-23 06:55:00,
2013-01-22 23:00:00,33.9,32.1,29.93,SE,135,0.0,0.0,93,0.00,,OVC120,0.00,VWS V14.01,2013-01-23 07:00:00,
2013-01-22 23:05:00,33.9,32.1,29.93,SE,135,0.0,0.0,93,0.00,,OVC120,0.00,VWS V14.01,2013-01-23 07:05:00,
2013-01-22 23:10:00,33.9,32.1,29.93,SE,135,0.0,0.0,93,0.00,,OVC120,0.00,VWS V14.01,2013-01-23 07:10:00,
2013-01-22 23:15:00,33.9,32.1,29.93,SE,135,0.0,0.0,93,0.00,,OVC120,0.00,VWS V14.01,2013-01-23 07:15:00,
2013-01-22 23:20:00,34.1,32.3,29.93,SE,135,0.0,0.0,93,0.00,,OVC120,0.00,VWS V14.01,2013-01-23 07:20:00,
2013-01-22 23:25:00,34.1,32.3,29.93,SE,135,0.0,0.0,93,0.00,,OVC120,0.00,VWS V14.01,2013-01-23 07:25:00,
2013-01-22 23:30:00,34.1,32.3,29.92,ESE,112,0.0,0.0,93,0.00,,OVC120,0.00,VWS V14.01,2013-01-23 07:30:00,
2013-01-22 23:35:00,34.3,32.5,29.91,ESE,112,0.0,0.0,93,0.00,,OVC120,0.00,VWS V14.01,2013-01-23 07:35:00,
2013-01-22 23:40:00,34.3,32.5,29.93,ESE,112,0.0,0.0,93,0.00,,OVC120,0.00,VWS V14.01,2013-01-23 07:40:00,
2013-01-22 23:45:00,34.3,32.5,29.93,ESE,112,0.0,0.0,93,0.00,,OVC120,0.00,VWS V14.01,2013-01-23 07:45:00,
2013-01-22 23:50:00,34.3,32.5,29.93,ESE,112,0.0,0.0,93,0.00,,OVC120,0.00,VWS V14.01,2013-01-23 07:50:00,
2013-01-22 23:55:00,34.3,32.5,29.93,ESE,112,0.0,0.0,93,0.00,,OVC120,0.00,VWS V14.01,2013-01-23 07:55:00,